{"data":{"norad_id":65111,"epoch":"2026-09-21T22:24:49.589856Z","epoch_age_seconds":41408,"freshness":"FRESH","line1":"1 65111U 25168F   26264.93390729 -.00000073  00000+0  10911-3 0  9993","line2":"2 65111  50.0009 338.3232 0009984  24.7293 335.4056 13.29331084 55562","mean_motion":13.29331084,"eccentricity":0.0009984,"inclination_deg":50.0009,"raan_deg":338.3232,"arg_perigee_deg":24.7293,"mean_anomaly_deg":335.4056,"bstar":0.00010911,"rev_number":5556,"period_min":108.3251582192,"perigee_km":1141.77199897,"apogee_km":1156.802759971,"semimajor_km":7527.4243794705,"source":"CELESTRAK","updated_at":"2026-09-22T09:00:30.138381Z"}}